Hourly Data Report for April 28, 2020

CLYDE RIVER A
NUNAVUT
Current Station Operator: NAVCAN

70°29'09.000" N
68°31'01.000" W
26.50 m
2400804
71090
YCY

Download Data

Hourly Data (April 2020)
Hourly Data Report for April 28, 2020
TIME
LST
Temp Definition
°C
Dew Point Definition
°C
Rel Hum Definition
%
Precip. Amount Definition
mm

Wind Dir Definition
10's deg

Wind Spd Definition
km/h
Visibility Definition
km
Stn Press Definition
kPa
Hmdx Definition


Wind Chill Definition


Weather Definition


00:00 -16.0 -19.3 76 0.0   0 16.1 100.84     LegendNANA
01:00 -18.2 -22.4 70 0.0 29 9 16.1 100.94   -25 LegendNANA
02:00 -19.5 -23.2 73 0.0 28 5 16.1 101.02   -24 LegendNANA
03:00 -22.2 -25.3 76 0.0 31 8 16.1 101.10   -29 LegendNANA
04:00 -21.7 -24.6 78 0.0 34 5 16.1 101.22   -26 LegendNANA
05:00 -22.1 -25.4 75 0.0   0 16.1 101.30     LegendNANA
06:00 -21.0 -24.2 76 0.0 28 5 16.1 101.37   -25 LegendNANA
07:00 -18.3 -21.9 74 0.0   0 16.1 101.44     LegendNANA
08:00
09:00 -17.6 -21.3 73 0.0 11 8 16.1 101.64   -23 LegendNANA
10:00 -16.2 -21.4 65 0.0 12 5 16.1 101.69   -20 LegendNANA
11:00 -15.9 -20.3 69 0.0 8 5 16.1 101.69   -20 LegendNANA
12:00 -13.4 -19.1 63 0.0 17 13 16.1 101.73   -20 LegendNANA
13:00 -12.3 -17.6 65 0.0 15 22 16.1 101.76   -21 LegendNANA
14:00 -11.9 -16.8 68 0.0 16 18 16.1 101.81   -20 LegendNANA
15:00 -9.5 -16.8 56 0.0 20 18 16.1 101.83   -17 LegendNANA
16:00 -9.2 -16.6 55 0.0 21 21 16.1 101.87   -17 LegendNANA
17:00 -9.4 -16.5 57 0.0 24 15 16.1 101.90   -16 LegendNANA
18:00 -15.1 -18.2 78 0.0 33 13 16.1 101.92   -22 LegendNANA
19:00 -16.4 -20.4 72 0.0 31 13 16.1 101.97   -24 LegendNANA
20:00 -17.9 -21.3 75 0.0 2 13 16.1 101.98   -26 LegendNANA
21:00 -19.2 -23.1 72 0.0 36 8 16.1 101.99   -25 LegendNANA
22:00 -19.7 -23.4 73 0.0 34 8 16.1 101.99   -26 LegendNANA
23:00 -21.1 -23.9 79 0.0 LegendMM 9 16.1 101.96   -28 LegendNANA

Notes on Data Quality.

Legend

  • E = Estimated
  • M = Missing
  • NA = Not Available*
  • [empty] = Indicates an unobserved value
Date modified: